Regional Weather Roundup
Issued by NWS

Home | Current Version | Previous Version | Graphics & Text | Print | Product List | Glossary On
Versions: 1 2 3 4 5 6 7 8 9 10 11 12 13 14 15 16 17 18 19 20 21 22 23 24 25 26 27 28 29 30 31 32 33 34 35 36 37 38 39 40 41 42 43 44 45 46 47 48 49 50
000
ASUS43 KTOP 010259
RWRKS

WEATHER ROUNDUP FOR KANSAS
NATIONAL WEATHER SERVICE GOODLAND KS
1000 PM CDT TUE SEP 30 2014

NOTE:  "FAIR" INDICATES FEW OR NO CLOUDS BELOW 12,000 FEET WITH NO
SIGNIFICANT WEATHER AND/OR OBSTRUCTIONS TO VISIBILITY.

KSZ001>006-013>018-027>032-041>047-010400-
NORTHWEST KANSAS

CITY           SKY/WX    TMP DP  RH WIND       PRES   REMARKS
GOODLAND       CLOUDY    59  48  67 S3        29.78R
HAYS           CLEAR     64  57  77 NE7       29.70S
HILL CITY      CLEAR     65  60  84 E6        29.73R
RUSSELL        MOCLDY    69  62  78 CALM      29.69R
$$

KSZ061>065-074>080-084>089-010400-
SOUTHWEST KANSAS

CITY           SKY/WX    TMP DP  RH WIND       PRES   REMARKS
DODGE CITY     CLOUDY    64  49  57 SE6       29.75R
GARDEN CITY    CLEAR     63  44  50 NW8       29.75R
GREAT BEND     PTCLDY    70  61  73 S9        29.69F
LIBERAL        CLEAR     66  45  45 NE5       29.76R
$$

KSZ066>073-081>083-090>101-010400-
SOUTHEAST KANSAS

CITY           SKY/WX    TMP DP  RH WIND       PRES   REMARKS
CHANUTE        CLEAR     72  62  71 SE10      29.81R
COFFEYVILLE    CLEAR     72  63  73 SE12      29.80R
HUTCHINSON     CLOUDY    78  58  49 SE17G26   29.68F
MEDICINE LODGE   N/A     80  56  43 S16G28    29.68R
NEWTON         MOCLDY    73  57  56 S18       29.73F
PARSONS        CLEAR     74  63  68 SE7       29.82R
WICHITA INTL   CLOUDY    77  61  57 SE18      29.71S
WICHITA JABRA  PTCLDY    76  61  59 S18       29.72S
WINFIELD       CLEAR     75  63  66 SE15G24   29.76R
$$

KSZ007>012-019>026-033>040-048>060-102>105-010400-
NORTHEAST KANSAS

CITY           SKY/WX    TMP DP  RH WIND       PRES   REMARKS
CONCORDIA      TSTM      66  66 100 SE5       29.73S FOG
EMPORIA        MOCLDY    73  62  68 SE15      29.76R
LAWRENCE       PTCLDY    69  60  73 SE9       29.77F
MANHATTAN      CLOUDY    77  62  59 S17G25    29.70S
OLATHE IND     PTCLDY    71  59  65 SE10      29.80F
OLATHE EXE     PTCLDY    70  59  68 SE9       29.79F
SALINA         LGT RAIN  71  64  78 S12       29.70S
TOPEKA BILLARD MOCLDY    76  61  59 SE14      29.75S
TOPEKA FORBES  MOCLDY    74  60  61 SE13      29.76R
$$



USA.gov is the U.S. government's official web portal to all federal, state and local government web resources and services.